Location: Maiden
(35.5760°N, 81.2120°W)
Time: 13:31:27
(UTC-04:00)

ISS - Visible Passes

Search period start: 02 September 2014 00:00
Search period end: 12 September 2014 00:00
Orbit: 413 x 419 km, 51.6° (Epoch: 02 September)

Date Brightness Start Highest point End Pass type
(mag) Time Alt. Az. Time Alt. Az. Time Alt. Az.
08 Sep -0.5 06:32:25 10° S 06:34:34 16° SE 06:36:44 10° E visible
10 Sep -2.6 06:30:21 10° SSW 06:33:36 54° SE 06:36:51 10° ENE visible
11 Sep -1.5 05:42:58 16° S 05:44:56 27° SE 05:47:49 10° ENE visible
